Location: Observatoire
(46.1952°N, 5.3391°E)
Time: 21:31:12
(UTC+01:00)

Tiros 1 despin weight - Pass Details

Date: 20 February 2026
Orbit: 556 x 593 km, 48.2° (Epoch: 3 March)

Event Time Altitude Azimuth Distance (km) Brightness Sun altitude
Rises 13:12:27 0° 185° (S) 2,742 ? 32.8°
Reaches altitude 10° 13:16:39 10° 145° (SE) 1,843 ? 32.7°
Maximum altitude 13:17:26 10° 134° (SE) 1,814 ? 32.7°
Drops below altitude 10° 13:18:13 10° 123° (ESE) 1,842 ? 32.7°
Sets 13:22:24 0° 83° (E) 2,737 ? 32.6°
